Date String (YYYY-MM-DD hh:mm:ss) UTC,Instrument flags,Ambient pressure (hPa),Sample flow (lpm),Bypass flow (lpm),Sample temperature (°C),Ambient temperature (°C),ASC tube jacket temperature (°C),LED temperature (°C),Box temperature (°C),Sample RH (%),Span deviation,Mass concentration (μg/m³),Mass concentration (μg/m³),Mass concentration (μg/m³)
DateTimeUTC,F1_M11,P_M11,Q1_M11,Q2_M11,T1_M11,T2_M11,T3_M11,T4_M11,T5_M11,U1_M11,ZSPAN_M11,X0_M11,X2_M11,X1_M11
2022-06-16 21:00:00,,0829.0,5.02,0.00,29.0,27.0,00.0,37.7,30.8,19.2,0000.0,0032.03,0007.88,0004.48
2022-06-16 21:01:00,,0828.9,4.99,0.00,29.0,27.1,00.0,37.7,30.8,19.6,0000.4,0032.20,0007.85,0004.49
2022-06-16 21:02:00,,0829.0,4.98,0.00,29.0,27.3,00.0,37.7,30.9,19.2,0000.0,0033.45,0007.91,0004.50
2022-06-16 21:03:00,,0828.7,5.00,0.00,29.0,27.5,00.0,37.7,31.0,19.1,0000.0,0033.92,0007.85,0004.49
2022-06-16 21:04:00,,0828.9,5.01,0.00,29.0,27.7,00.0,37.8,31.0,19.5,0000.0,0033.27,0007.80,0004.49
2022-06-16 21:05:00,,0829.0,5.01,0.00,29.1,27.9,00.0,37.8,31.1,18.6,0000.0,0033.95,0007.77,0004.48
2022-06-16 21:06:00,,0828.6,5.00,0.00,29.1,28.1,00.0,37.8,31.2,18.6,0000.0,0033.59,0007.85,0004.46
2022-06-16 21:07:00,,0828.5,4.99,0.00,29.2,28.2,00.0,37.8,31.2,18.5,0000.0,0033.83,0007.83,0004.44
2022-06-16 21:08:00,,0828.5,4.99,0.00,29.2,27.9,00.0,37.8,31.1,18.8,0000.0,0033.64,0007.82,0004.43
2022-06-16 21:09:00,,0828.5,5.02,0.00,29.1,27.1,00.0,37.8,30.9,18.5,0000.0,0032.01,0007.69,0004.41
2022-06-16 21:10:00,,0828.4,5.00,0.00,29.0,26.9,00.0,37.7,30.8,18.7,0000.0,0031.01,0007.70,0004.41
2022-06-16 21:11:00,,0828.5,5.00,0.00,29.0,27.0,00.0,37.7,30.8,19.5,0000.0,0032.10,0007.79,0004.42
2022-06-16 21:12:00,,0828.5,5.01,0.00,29.0,27.1,00.0,37.7,30.8,19.2,0000.0,0033.30,0007.89,0004.41
2022-06-16 21:13:00,,0828.5,5.00,0.00,29.0,27.3,00.0,37.7,30.9,19.0,0000.0,0032.78,0007.90,0004.39
2022-06-16 21:14:00,,0828.5,4.99,0.00,29.0,27.5,00.0,37.8,31.0,19.1,0000.0,0033.71,0007.92,0004.37
2022-06-16 21:15:00,,0828.5,5.00,0.00,29.0,27.8,00.0,37.8,31.0,18.9,0000.0,0033.61,0007.95,0004.37
2022-06-16 21:16:00,,0828.4,5.01,0.00,29.1,28.0,00.0,37.8,31.1,18.6,0000.0,0033.41,0008.00,0004.36
2022-06-16 21:17:00,,0828.5,5.00,0.00,29.1,28.1,00.0,37.8,31.2,19.2,0000.0,0034.38,0007.93,0004.37
2022-06-16 21:18:00,,0828.4,4.99,0.00,29.2,28.2,00.0,37.8,31.2,18.6,0000.0,0033.97,0007.83,0004.37
2022-06-16 21:19:00,,0828.3,5.00,0.00,29.2,27.7,00.0,37.8,31.1,19.0,0000.0,0033.34,0007.83,0004.36
2022-06-16 21:20:00,,0828.3,5.02,0.00,29.1,27.1,00.0,37.7,30.9,19.1,0000.0,0034.16,0007.84,0004.37
2022-06-16 21:21:00,,0828.4,4.99,0.00,29.0,27.0,00.0,37.7,30.8,19.6,0000.0,0033.51,0007.76,0004.37
2022-06-16 21:22:00,,0828.4,4.99,0.00,29.0,27.1,00.0,37.7,30.9,19.3,0000.0,0033.38,0007.69,0004.38
2022-06-16 21:23:00,,0828.4,5.00,0.00,29.0,27.3,00.0,37.7,30.9,19.8,0000.0,0032.82,0007.60,0004.37
2022-06-16 21:24:00,,0828.4,5.00,0.00,29.0,27.5,00.0,37.8,31.0,19.9,0000.0,0032.86,0007.53,0004.38
2022-06-16 21:25:00,,0828.4,5.00,0.00,29.0,27.7,00.0,37.8,31.0,18.8,0000.0,0032.95,0007.46,0004.39
2022-06-16 21:26:00,,0828.3,5.00,0.00,29.1,27.9,00.0,37.8,31.1,18.7,0000.0,0032.75,0007.41,0004.40
2022-06-16 21:27:00,,0828.3,5.01,0.00,29.1,28.1,00.0,37.8,31.2,18.9,0000.0,0032.98,0007.32,0004.39
2022-06-16 21:28:00,,0828.3,5.00,0.00,29.2,28.2,00.0,37.8,31.2,19.4,0000.0,0033.12,0007.39,0004.39
2022-06-16 21:29:00,,0828.2,4.99,0.00,29.2,27.7,00.0,37.8,31.1,18.9,0000.0,0033.42,0007.48,0004.37
2022-06-16 21:30:00,,0828.2,5.02,0.00,29.1,27.1,00.0,37.8,30.9,18.7,-000.0,0034.66,0007.46,0004.37
2022-06-16 21:31:00,,0828.2,4.99,0.00,29.0,26.9,00.0,37.7,30.8,19.0,0000.1,0035.76,0007.44,0004.35
2022-06-16 21:32:00,,0828.3,5.00,0.00,29.0,27.0,00.0,37.7,30.9,19.4,0000.6,0035.04,0007.43,0004.33
2022-06-16 21:33:00,,0828.1,4.99,0.00,29.0,27.2,00.0,37.8,30.9,19.3,0001.1,0034.40,0007.37,0004.30
2022-06-16 21:34:00,,0828.2,5.00,0.00,29.0,27.4,00.0,37.8,31.0,19.6,0001.7,0035.00,0007.39,0004.28
2022-06-16 21:35:00,,0828.1,5.00,0.00,29.0,27.6,00.0,37.8,31.0,18.9,0002.8,0034.83,0007.39,0004.26
2022-06-16 21:36:00,,0828.2,5.01,0.00,29.1,27.8,00.0,37.8,31.1,18.8,0002.9,0034.98,0007.45,0004.23
2022-06-16 21:37:00,,0828.1,5.00,0.00,29.1,28.0,00.0,37.8,31.2,18.6,0001.3,0036.31,0007.47,0004.21
2022-06-16 21:38:00,,0828.2,5.00,0.00,29.2,28.2,00.0,37.9,31.2,18.6,0001.3,0035.76,0007.48,0004.20
2022-06-16 21:39:00,,0828.1,4.99,0.00,29.2,27.8,00.0,37.8,31.1,18.6,0001.6,0036.46,0007.50,0004.17
2022-06-16 21:40:00,,0828.1,5.00,0.00,29.1,27.0,00.0,37.8,30.9,18.8,0000.2,0037.08,0007.50,0004.17
2022-06-16 21:41:00,,0828.1,4.99,0.00,29.0,26.9,00.0,37.7,30.8,19.3,0000.0,0036.62,0007.48,0004.16
2022-06-16 21:42:00,,0828.1,5.01,0.00,29.0,27.0,00.0,37.7,30.9,19.1,0000.0,0033.67,0007.43,0004.16
2022-06-16 21:43:00,,0828.1,5.00,0.00,29.0,27.2,00.0,37.7,30.9,19.1,0000.0,0034.72,0007.43,0004.16
2022-06-16 21:44:00,,0828.1,5.00,0.00,29.0,27.4,00.0,37.8,30.9,19.3,0000.0,0035.42,0007.52,0004.17
2022-06-16 21:45:00,,0828.1,4.99,0.00,29.0,27.6,00.0,37.8,31.0,19.4,0000.0,0034.25,0007.45,0004.15
2022-06-16 21:46:00,,0828.0,5.00,0.00,29.1,27.8,00.0,37.8,31.1,19.4,0000.0,0033.16,0007.45,0004.16
2022-06-16 21:47:00,,0828.0,5.01,0.00,29.1,28.0,00.0,37.8,31.2,19.9,0000.0,0032.15,0007.40,0004.16
2022-06-16 21:48:00,,0828.0,4.98,0.00,29.2,28.2,00.0,37.8,31.3,19.0,0000.0,0031.34,0007.32,0004.14
2022-06-16 21:49:00,,0828.0,5.00,0.00,29.2,28.0,00.0,37.8,31.2,19.5,0000.0,0032.82,0007.26,0004.14
2022-06-16 21:50:00,,0827.9,5.01,0.00,29.1,27.2,00.0,37.8,31.0,19.9,0000.0,0031.28,0007.18,0004.14
2022-06-16 21:51:00,,0827.9,4.99,0.00,29.1,27.0,00.0,37.8,30.9,20.1,0000.0,0030.99,0007.16,0004.14
2022-06-16 21:52:00,,0827.9,5.01,0.00,29.0,27.1,00.0,37.7,30.9,20.6,0000.0,0030.84,0007.16,0004.13
2022-06-16 21:53:00,,0827.9,5.00,0.00,29.0,27.2,00.0,37.7,30.9,20.2,0000.7,0031.69,0007.24,0004.13
2022-06-16 21:54:00,,0827.9,4.99,0.00,29.0,27.4,00.0,37.8,31.0,19.9,0000.0,0030.71,0007.23,0004.12
2022-06-16 21:55:00,,0827.9,4.99,0.00,29.0,27.6,00.0,37.8,31.0,19.4,0000.0,0031.10,0007.20,0004.11
2022-06-16 21:56:00,,0827.8,5.00,0.00,29.1,27.8,00.0,37.8,31.1,19.6,0000.0,0031.91,0007.28,0004.12
2022-06-16 21:57:00,,0827.8,5.00,0.00,29.1,28.0,00.0,37.8,31.2,19.0,0000.0,0034.14,0007.25,0004.12
2022-06-16 21:58:00,,0827.9,5.00,0.00,29.2,28.2,00.0,37.9,31.3,19.1,0000.0,0035.27,0007.28,0004.11
2022-06-16 21:59:00,,0827.9,5.01,0.00,29.2,28.1,00.0,37.9,31.2,19.6,0000.0,0034.97,0007.28,0004.11
